KB7YYZ Weather Reports


time (UTC)temp
F
wind
direction
speed
knots
gust
knots
rain 1hr
in
rain 24hr
in
rain mn
in
humidity
%
barometer
mb
20260508050035 80 108 0.0 0.0 0.00 0.00 0.00 21 1008.0
20260508045037 80 0.0 0.0 0.00 0.00 0.00 21 1007.7
20260508044040 80 125 0.0 0.0 0.00 0.00 0.00 21 1007.6
20260508043041 80 52 0.0 0.9 0.00 0.00 0.00 21 1007.5
20260508042026 80 0.0 0.0 0.00 0.00 0.00 21 1007.5
20260508041033 81 0.0 0.0 0.00 0.00 0.00 20 1007.3
20260508040046 82 106 0.0 0.0 0.00 0.00 0.00 20 1007.2
20260508035046 82 128 0.0 0.9 0.00 0.00 0.00 19 1007.0
20260508034039 83 0.0 0.0 0.00 0.00 0.00 18 1006.8
20260508033024 83 320 0.0 0.9 0.00 0.00 0.00 17 1006.5
20260508032029 84 246 0.9 0.9 0.00 0.00 0.00 16 1006.3
20260508031023 84 214 1.7 1.7 0.00 0.00 0.00 16 1006.1
20260508025028 85 243 2.6 2.6 0.00 0.00 0.00 14 1005.7
20260508024020 86 237 0.9 0.9 0.00 0.00 0.00 14 1005.4
20260508023050 86 241 0.9 0.9 0.00 0.00 0.00 13 1005.1
20260508022019 87 271 0.9 0.9 0.00 0.00 0.00 13 1004.9
20260508021026 87 278 0.9 0.9 0.00 0.00 0.00 13 1004.8
20260508020044 87 254 1.7 1.7 0.00 0.00 0.00 13 1004.5
20260508015022 88 261 1.7 1.7 0.00 0.00 0.00 13 1004.5
20260508014020 88 283 2.6 2.6 0.00 0.00 0.00 13 1004.3
20260508013030 89 281 2.6 2.6 0.00 0.00 0.00 13 1004.3
20260508012035 89 282 2.6 2.6 0.00 0.00 0.00 13 1004.2
20260508011042 89 291 1.7 1.7 0.00 0.00 0.00 13 1004.1
20260508010040 90 263 2.6 2.6 0.00 0.00 0.00 13 1004.0
20260508005021 90 312 1.7 1.7 0.00 0.00 0.00 13 1003.9
20260508004027 90 293 2.6 2.6 0.00 0.00 0.00 13 1003.8
20260508003033 91 292 2.6 2.6 0.00 0.00 0.00 13 1003.6
20260508002040 91 277 2.6 2.6 0.00 0.00 0.00 13 1003.7
20260508001039 92 306 2.6 2.6 0.00 0.00 0.00 13 1003.7
20260508000058 92 287 1.7 139.9 0.00 0.00 0.00 13 1003.7
20260507235025 92 350 1.7 2.6 0.00 0.00 0.00 14 1003.6
20260507234030 92 264 1.7 1.7 0.00 0.00 0.00 14 1003.6
20260507233038 92 266 2.6 2.6 0.00 0.00 0.00 14 1003.8
20260507232035 92 293 1.7 2.6 0.00 0.00 0.00 14 1003.8
20260507230040 92 216 2.6 2.6 0.00 0.00 0.00 14 1004.0
20260507225024 92 250 1.7 2.6 0.00 0.00 0.00 14 1004.0
20260507224020 92 307 1.7 1.7 0.00 0.00 0.00 14 1004.1
20260507223024 92 354 2.6 2.6 0.00 0.00 0.00 14 1004.2
20260507222043 91 325 2.6 2.6 0.00 0.00 0.00 14 1004.2
20260507221021 91 2 1.7 1.7 0.00 0.00 0.00 14 1004.4
20260507220105 91 332 1.7 1.7 0.00 0.00 0.00 14 1004.6
20260507215030 92 185 1.7 1.7 0.00 0.00 0.00 14 1004.7
20260507214037 92 7 1.7 1.7 0.00 0.00 0.00 14 1004.8
20260507213037 93 316 1.7 2.6 0.00 0.00 0.00 14 1005.0
20260507212038 92 300 1.7 1.7 0.00 0.00 0.00 14 1005.1
20260507211022 92 247 1.7 1.7 0.00 0.00 0.00 14 1005.2
20260507210027 92 249 1.7 2.6 0.00 0.00 0.00 14 1005.4
20260507205033 92 305 2.6 2.6 0.00 0.00 0.00 14 1005.6
20260507204039 92 241 2.6 139.9 0.00 0.00 0.00 13 1005.6
20260507203117 91 296 1.7 1.7 0.00 0.00 0.00 14 1005.6
20260507202037 90 223 0.9 1.7 0.00 0.00 0.00 13 1005.7
20260507201026 91 328 1.7 1.7 0.00 0.00 0.00 14 1005.9
20260507200030 91 250 1.7 1.7 0.00 0.00 0.00 14 1006.1
20260507195038 90 258 1.7 1.7 0.00 0.00 0.00 14 1006.4
20260507194023 90 281 1.7 1.7 0.00 0.00 0.00 15 1006.5
20260507193036 89 307 0.9 0.9 0.00 0.00 0.00 14 1006.6
20260507192042 89 243 1.7 1.7 0.00 0.00 0.00 14 1006.7
20260507191027 88 237 1.7 1.7 0.00 0.00 0.00 15 1006.8
20260507190026 88 212 1.7 1.7 0.00 0.00 0.00 15 1007.0
20260507185023 88 259 1.7 1.7 0.00 0.00 0.00 16 1007.2
20260507184022 87 307 1.7 1.7 0.00 0.00 0.00 18 1007.3
20260507183020 87 267 0.9 0.9 0.00 0.00 0.00 19 1007.4
20260507182026 86 299 0.9 0.9 0.00 0.00 0.00 19
20260507181030 86 213 1.7 1.7 0.00 0.00 0.00 19
20260507180028 85 305 0.9 1.7 0.00 0.00 0.00 20
20260507175037 84 308 0.9 0.9 0.00 0.00 0.00 20 1008.1
20260507174038 84 261 0.9 0.9 0.00 0.00 0.00 21 1008.3
20260507173021 83 284 0.9 0.9 0.00 0.00 0.00 21 1008.3
20260507172027 82 265 0.9 0.9 0.00 0.00 0.00 22 1008.4
20260507171024 81 320 0.9 0.9 0.00 0.00 0.00 22 1008.5
20260507170039 80 232 0.9 0.9 0.00 0.00 0.00 22 1008.5
20260507165036 80 222 0.0 0.9 0.00 0.00 0.00 23 1008.6
20260507164026 79 208 0.9 0.9 0.00 0.00 0.00 23 1008.7
20260507163027 78 70 0.9 0.9 0.00 0.00 0.00 23 1008.7
20260507162040 78 240 0.9 0.9 0.00 0.00 0.00 24 1008.8
20260507161058 77 195 0.9 0.9 0.00 0.00 0.00 24 1008.8
20260507160036 76 201 0.0 0.9 0.00 0.00 0.00 25 1009.0
20260507155026 75 136 0.0 0.0 0.00 0.00 0.00 25 1009.1
20260507154022 75 264 0.9 0.9 0.00 0.00 0.00 28 1009.1
20260507153048 73 154 0.0 0.9 0.00 0.00 0.00 28 1009.2
20260507152024 73 161 0.9 0.9 0.00 0.00 0.00 29 1009.4
20260507151024 72 183 0.9 0.9 0.00 0.00 0.00 30 1009.4
20260507150023 71 214 0.9 0.9 0.00 0.00 0.00 30 1009.5
20260507145038 70 150 0.0 0.9 0.00 0.00 0.00 30 1009.5
20260507144028 70 120 0.9 0.9 0.00 0.00 0.00 31 1009.5
20260507143031 69 186 0.9 0.9 0.00 0.00 0.00 31 1009.5
20260507142038 69 171 0.0 0.9 0.00 0.00 0.00 32 1009.6
20260507141200 68 187 0.0 0.0 0.00 0.00 0.00 33 1009.5
20260507140035 67 182 0.0 0.9 0.00 0.00 0.00 33 1009.5
20260507135023 66 113 0.0 0.0 0.00 0.00 0.00 34 1009.5
20260507134029 65 0.0 0.0 0.00 0.00 0.00 35 1009.4
20260507133035 64 0.0 0.0 0.00 0.00 0.00 36 1009.3
20260507132040 63 0.0 0.9 0.00 0.00 0.00 36 1009.2
20260507131035 63 0.0 0.0 0.00 0.00 0.00 37 1009.1
20260507130020 63 0.0 0.0 0.00 0.00 0.00 38 1009.0
20260507125027 63 0.0 0.0 0.00 0.00 0.00 38 1009.0
20260507124031 63 0.0 0.0 0.00 0.00 0.00 38 1008.9
20260507123021 64 0.0 0.0 0.00 0.00 0.00 36 1008.8
20260507122035 64 0.0 0.0 0.00 0.00 0.00 35 1008.8
20260507121034 64 0.0 0.0 0.00 0.00 0.00 35 1008.8
20260507120022 64 0.0 0.0 0.00 0.00 0.00 34 1008.9
20260507115027 65 0.0 0.0 0.00 0.00 0.00 34 1008.9
20260507114023 65 0.0 0.0 0.00 0.00 0.00 34 1009.0
20260507113023 65 0.0 0.0 0.00 0.00 0.00 35 1008.9
20260507112040 65 333 0.0 0.0 0.00 0.00 0.00 35 1008.9
20260507111019 65 308 0.0 0.0 0.00 0.00 0.00 35 1008.9
20260507110045 65 63 0.9 0.9 0.00 0.00 0.00 35 1008.8
20260507105031 66 348 1.7 1.7 0.00 0.00 0.00 35 1008.7
20260507104042 66 2 1.7 1.7 0.00 0.00 0.00 35 1008.7
20260507103037 66 344 1.7 1.7 0.00 0.00 0.00 35 1008.8
20260507102034 65 11 0.9 1.7 0.00 0.00 0.00 36 1008.9
20260507101042 65 50 0.0 0.9 0.00 0.00 0.00 37 1009.0
20260507100029 65 0.0 0.0 0.00 0.00 0.00 37 1009.1
20260507095034 66 0.0 0.0 0.00 0.00 0.00 36 1009.2
20260507094034 66 0.0 0.0 0.00 0.00 0.00 35 1009.2
20260507093023 66 0.0 0.0 0.00 0.00 0.00 34 1009.2
20260507092019 67 0.0 0.0 0.00 0.00 0.00 33 1009.2
20260507091025 67 42 0.0 0.0 0.00 0.00 0.00 32 1009.2
20260507090055 67 37 0.0 0.9 0.00 0.00 0.00 32 1009.2
20260507085033 67 47 0.9 0.9 0.00 0.00 0.00 32 1009.2
20260507084033 67 22 0.9 0.9 0.00 0.00 0.00 32 1009.2
20260507083021 67 42 0.9 0.9 0.00 0.00 0.00 32 1009.4
20260507082044 68 354 0.9 0.9 0.00 0.00 0.00 31 1009.4
20260507081108 68 29 0.9 0.9 0.00 0.00 0.00 30 1009.4
20260507080044 68 358 0.9 0.9 0.00 0.00 0.00 30 1009.4
20260507075022 69 67 0.0 0.9 0.00 0.00 0.00 30 1009.2
20260507074019 69 41 0.9 0.9 0.00 0.00 0.00 30 1009.4
20260507073019 69 42 0.9 0.9 0.00 0.00 0.00 30 1009.4
20260507072026 70 71 0.0 0.9 0.00 0.00 0.00 29 1009.4
20260507071026 70 40 0.0 0.9 0.00 0.00 0.00 29 1009.4
20260507070053 70 51 0.0 0.0 0.00 0.00 0.00 29 1009.5
20260507065033 70 3 0.0 0.0 0.00 0.00 0.00 27 1009.4
20260507064054 71 347 0.9 0.9 0.00 0.00 0.00 27 1009.4
20260507063022 71 3 0.9 0.9 0.00 0.00 0.00 27 1009.2
20260507062041 71 349 0.9 0.9 0.00 0.00 0.00 29 1009.2
20260507061037 71 4 0.9 1.7 0.00 0.00 0.00 29 1009.2
20260507060133 71 3 0.9 1.7 0.00 0.00 0.00 28 1009.2
20260507055107 71 342 0.9 0.9 0.00 0.00 0.00 28 1009.2
20260507054040 72 341 0.9 0.9 0.00 0.00 0.00 28 1009.2
20260507053026 73 337 0.9 0.9 0.00 0.00 0.00 26 1009.2
20260507052034 73 332 0.9 0.9 0.00 0.00 0.00 26 1009.1
20260507051033 73 349 0.9 0.9 0.00 0.00 0.00 25 1009.1